Port Angeles, WA

7:19 PM PDT on May 28, 2017 (GMT -0700)
Fairchild International

Weather History for KCLM - October, 2011

Change the Weather History Date:

Thursday, October 6, 2011

  Actual Average Record
Temperature  
Mean Temperature 52 °F -  
Max Temperature 60 °F 60 °F 73 °F (1980)
Min Temperature 46 °F 45 °F 36 °F (2000)
Degree Days  
Heating Degree Days 12    
Growing Degree Days 2 (Base 50)    
Moisture  
Dew Point 48 °F    
Average Humidity 79    
Maximum Humidity 90    
Minimum Humidity 67    
Precipitation  
Precipitation 0.00 in - - ()
Sea Level Pressure  
Sea Level Pressure 29.97 in    
Wind  
Wind Speed 5 mph (West)    
Max Wind Speed 8 mph    
Max Gust Speed -    
Visibility 10 miles    
Events Rain    
Averages and records for this station are not official NWS values.
T = Trace of Precipitation, MM = Missing Value Source: NWS Daily Summary

Daily Weather History Graph

Daily Weather History Graph

Search for Another Location

Airport or City:

Trip Planner

Search our weather history database for the weather conditions in past years. The results will help you decide how hot, cold, wet, or windy it might be!

Date:

Astronomy

Oct. 06, 2011 Rise Set
Actual Time 7:20 AM PDT 6:43 PM PDT
Civil Twilight 6:49 AM PDT 7:14 PM PDT
Nautical Twilight 6:13 AM PDT 7:50 PM PDT
Astronomical Twilight 5:36 AM PDT 8:26 PM PDT
Moon 4:18 PM PDT (10/6) 1:52 AM PDT (10/6)
Length of Visible Light 12h 25m
Length of Day
11h 23m
Waxing Gibbous, 76% of the Moon is Illuminated
Oct 6
Waxing Gibbous
Oct 11
Full
Oct 19
Last Quarter
Oct 26
New
Nov 2
First Quarter

Hourly Weather History & Observations

Time (PDT) Temp. Dew Point Humidity Pressure Visibility Wind Dir Wind Speed Gust Speed Precip Events Conditions
12:53 AM 52.0 °F 48.0 °F 86% 29.79 in 8.0 mi WSW 5.8 mph - 0.00 in Rain Light Rain
1:53 AM 52.0 °F 48.0 °F 86% 29.81 in 10.0 mi WSW 8.1 mph - 0.00 in   Overcast
2:53 AM 52.0 °F 48.0 °F 86% 29.82 in 10.0 mi West 4.6 mph - N/A   Overcast
3:53 AM 52.0 °F 46.9 °F 83% 29.83 in 10.0 mi WSW 5.8 mph - N/A   Overcast
4:53 AM 51.8 °F 46.4 °F 82% 29.85 in 10.0 mi WSW 8.1 mph - N/A   Overcast
5:53 AM 52.0 °F 46.9 °F 83% 29.88 in 10.0 mi WSW 4.6 mph - N/A   Overcast
6:53 AM 51.1 °F 46.9 °F 86% 29.89 in 10.0 mi WSW 5.8 mph - N/A   Overcast
7:53 AM 52.0 °F 48.0 °F 86% 29.91 in 10.0 mi WSW 4.6 mph - N/A   Overcast
8:53 AM 54.0 °F 48.0 °F 80% 29.93 in 10.0 mi WSW 5.8 mph - N/A   Clear
9:53 AM 55.9 °F 48.0 °F 75% 29.95 in 10.0 mi WNW 4.6 mph - N/A   Clear
10:45 AM 57.2 °F 48.2 °F 72% 29.95 in 10.0 mi Variable 3.5 mph - N/A   Mostly Cloudy
10:53 AM 57.0 °F 46.9 °F 69% 29.96 in 10.0 mi North 4.6 mph - N/A   Scattered Clouds
11:04 AM 57.2 °F 46.4 °F 67% 29.96 in 10.0 mi North 4.6 mph - N/A   Mostly Cloudy
11:53 AM 55.0 °F 48.0 °F 77% 29.98 in 10.0 mi North 3.5 mph - N/A   Overcast
12:53 PM 57.9 °F 48.0 °F 70% 29.98 in 10.0 mi NNW 4.6 mph - N/A   Overcast
1:23 PM 59.0 °F 48.2 °F 67% 29.98 in 10.0 mi Calm Calm - N/A   Scattered Clouds
1:53 PM 59.0 °F 48.0 °F 67% 29.98 in 10.0 mi Variable 4.6 mph - N/A   Mostly Cloudy
2:53 PM 57.9 °F 48.9 °F 72% 29.99 in 10.0 mi WNW 4.6 mph - N/A   Overcast
3:23 PM 57.2 °F 48.2 °F 72% 30.00 in 10.0 mi NW 5.8 mph - N/A   Overcast
3:43 PM 57.2 °F 48.2 °F 72% 30.01 in 10.0 mi NW 5.8 mph - N/A   Overcast
3:53 PM 57.0 °F 48.9 °F 74% 30.01 in 10.0 mi NW 8.1 mph - N/A   Overcast
4:53 PM 55.9 °F 48.9 °F 77% 30.02 in 10.0 mi NW 8.1 mph - N/A   Overcast
5:53 PM 55.4 °F 48.2 °F 77% 30.02 in 10.0 mi NW 5.8 mph - N/A   Overcast
6:53 PM 55.0 °F 48.0 °F 77% 30.04 in 10.0 mi West 6.9 mph - N/A   Overcast
7:53 PM 54.0 °F 48.0 °F 80% 30.06 in 10.0 mi Calm Calm - N/A   Overcast
8:20 PM 53.6 °F 48.2 °F 82% 30.05 in 10.0 mi Calm Calm - N/A   Partly Cloudy
8:53 PM 51.1 °F 46.9 °F 86% 30.06 in 10.0 mi SW 3.5 mph - N/A   Scattered Clouds
9:00 PM 51.8 °F 46.4 °F 82% 30.06 in 10.0 mi SW 3.5 mph - N/A   Mostly Cloudy
9:34 PM 51.8 °F 46.4 °F 82% 30.05 in 10.0 mi SW 3.5 mph - N/A   Mostly Cloudy
9:53 PM 51.1 °F 46.0 °F 83% 30.06 in 10.0 mi WSW 3.5 mph - N/A   Clear
10:53 PM 46.9 °F 44.1 °F 90% 30.06 in 10.0 mi Calm Calm - N/A   Scattered Clouds
11:53 PM 50.0 °F 46.9 °F 89% 30.06 in 10.0 mi WSW 3.5 mph - N/A   Overcast